owner,sensor,date,latitude,longitude,vertical_datum,direction_of_sea_water_velocity,sea_water_speed,upward_sea_water_velocity,qcFlag 
TABS,ioos:station:wmo:42045:1,1999-01-01T00:00:00Z,26.2168,-96.4998,2.0,45.00010523,12.43093721,-99999.0,'11111222,11111222,99999999' 
TABS,ioos:station:wmo:42045:1,1999-01-01T00:30:00Z,26.2168,-96.4998,2.0,41.08695485,10.87945311,-99999.0,'11111222,11111222,99999999' 
TABS,ioos:station:wmo:42045:1,1999-01-01T01:00:00Z,26.2168,-96.4998,2.0,51.20264073,9.751517831,-99999.0,'11133222,11111222,99999999' 
TABS,ioos:station:wmo:42045:1,1999-01-01T03:30:00Z,26.2168,-96.4998,2.0,54.08480666,8.643199639,-99999.0,'11133222,11111222,99999999' 
TABS,ioos:station:wmo:42045:1,1999-01-01T04:00:00Z,26.2168,-96.4998,2.0,58.56762899,9.434452819,-99999.0,'11133222,11111222,99999999' 
TABS,ioos:station:wmo:42045:1,1999-01-01T04:30:00Z,26.2168,-96.4998,2.0,61.57541595,10.33607759,-99999.0,'11111222,11111222,99999999' 
TABS,ioos:station:wmo:42045:1,1999-01-01T05:00:00Z,26.2168,-96.4998,2.0,71.03284558,10.55297588,-99999.0,'11111222,11111222,99999999' 
TABS,ioos:station:wmo:42045:1,1999-01-01T05:30:00Z,26.2168,-96.4998,2.0,70.35202018,13.2940325,-99999.0,'11111222,11111222,99999999' 
TABS,ioos:station:wmo:42045:1,1999-01-01T06:00:00Z,26.2168,-96.4998,2.0,69.77753345,12.06363544,-99999.0,'11111222,11111222,99999999' 
TABS,ioos:station:wmo:42045:1,1999-01-01T06:30:00Z,26.2168,-96.4998,2.0,80.29456908,12.39743925,-99999.0,'11111222,11111222,99999999' 
TABS,ioos:station:wmo:42045:1,1999-01-01T07:00:00Z,26.2168,-96.4998,2.0,66.65267394,13.14644439,-99999.0,'11111222,11111222,99999999' 
TABS,ioos:station:wmo:42045:1,1999-01-01T07:30:00Z,26.2168,-96.4998,2.0,73.25529501,14.47371756,-99999.0,'11111222,11111222,99999999' 
TABS,ioos:station:wmo:42045:1,1999-01-01T08:00:00Z,26.2168,-96.4998,2.0,66.51143274,16.08261795,-99999.0,'11111222,11111222,99999999' 
TABS,ioos:station:wmo:42045:1,1999-01-01T08:30:00Z,26.2168,-96.4998,2.0,69.89171404,16.02693358,-99999.0,'11111222,11111222,99999999' 
TABS,ioos:station:wmo:42045:1,1999-01-01T09:00:00Z,26.2168,-96.4998,2.0,71.4223144,17.76573106,-99999.0,'11111222,11111222,99999999' 
TABS,ioos:station:wmo:42045:1,1999-01-01T09:30:00Z,26.2168,-96.4998,2.0,74.55909391,16.22565869,-99999.0,'11111222,11111222,99999999' 
TABS,ioos:station:wmo:42045:1,1999-01-01T10:00:00Z,26.2168,-96.4998,2.0,73.09352822,15.88661071,-99999.0,'11111222,11111222,99999999' 
TABS,ioos:station:wmo:42045:1,1999-01-01T10:30:00Z,26.2168,-96.4998,2.0,72.53761215,16.39560917,-99999.0,'11111222,11111222,99999999' 
TABS,ioos:station:wmo:42045:1,1999-01-01T11:00:00Z,26.2168,-96.4998,2.0,66.95464707,15.2250353,-99999.0,'11111222,11111222,99999999' 
TABS,ioos:station:wmo:42045:1,1999-01-01T11:30:00Z,26.2168,-96.4998,2.0,67.66290943,14.49786881,-99999.0,'11111222,11111222,99999999' 
TABS,ioos:station:wmo:42045:1,1999-01-01T12:00:00Z,26.2168,-96.4998,2.0,70.9052451,15.92628645,-99999.0,'11111222,11111222,99999999' 
TABS,ioos:station:wmo:42045:1,1999-01-01T12:30:00Z,26.2168,-96.4998,2.0,63.70018994,15.46033958,-99999.0,'11111222,11111222,99999999' 
TABS,ioos:station:wmo:42045:1,1999-01-01T13:00:00Z,26.2168,-96.4998,2.0,69.45278514,15.27152907,-99999.0,'11111222,11111222,99999999' 
TABS,ioos:station:wmo:42045:1,1999-01-01T13:30:00Z,26.2168,-96.4998,2.0,77.19387493,13.44442264,-99999.0,'11111222,11111222,99999999' 
TABS,ioos:station:wmo:42045:1,1999-01-01T14:00:00Z,26.2168,-96.4998,2.0,79.41075591,16.21616477,-99999.0,'11111222,11111222,99999999' 
TABS,ioos:station:wmo:42045:1,1999-01-01T14:30:00Z,26.2168,-96.4998,2.0,43.14395152,3.056304959,-99999.0,'11133222,11111222,99999999' 
TABS,ioos:station:wmo:42045:1,1999-01-01T15:00:00Z,26.2168,-96.4998,2.0,85.28308895,16.29518947,-99999.0,'11111222,11111222,99999999' 
TABS,ioos:station:wmo:42045:1,1999-01-01T15:30:00Z,26.2168,-96.4998,2.0,91.59163306,32.04236258,-99999.0,'11111222,11111222,99999999' 
TABS,ioos:station:wmo:42045:1,1999-01-01T16:00:00Z,26.2168,-96.4998,2.0,80.94929949,27.46191545,-99999.0,'11111222,11111222,99999999' 
TABS,ioos:station:wmo:42045:1,1999-01-01T16:30:00Z,26.2168,-96.4998,2.0,84.92888235,13.46269661,-99999.0,'11111222,11111222,99999999' 
TABS,ioos:station:wmo:42045:1,1999-01-01T17:00:00Z,26.2168,-96.4998,2.0,87.97626089,8.4952987,-99999.0,'11133222,11111222,99999999' 
TABS,ioos:station:wmo:42045:1,1999-01-01T17:30:00Z,26.2168,-96.4998,2.0,320.1947324,11.63727202,-99999.0,'11111222,11111222,99999999' 
TABS,ioos:station:wmo:42045:1,1999-01-01T18:00:00Z,26.2168,-96.4998,2.0,333.4352214,9.659813663,-99999.0,'11133222,11111222,99999999' 
TABS,ioos:station:wmo:42045:1,1999-01-01T18:30:00Z,26.2168,-96.4998,2.0,2.470686029,10.43970306,-99999.0,'11111222,11111222,99999999' 
TABS,ioos:station:wmo:42045:1,1999-01-01T19:00:00Z,26.2168,-96.4998,2.0,346.4318283,9.505288002,-99999.0,'11133222,11111222,99999999' 
TABS,ioos:station:wmo:42045:1,1999-01-01T19:30:00Z,26.2168,-96.4998,2.0,2.058672629,12.52808445,-99999.0,'11111222,11111222,99999999' 
TABS,ioos:station:wmo:42045:1,1999-01-01T20:00:00Z,26.2168,-96.4998,2.0,345.5897768,10.76881145,-99999.0,'11111222,11111222,99999999' 
TABS,ioos:station:wmo:42045:1,1999-01-01T20:30:00Z,26.2168,-96.4998,2.0,355.2365799,17.94197592,-99999.0,'11111222,11111222,99999999' 
TABS,ioos:station:wmo:42045:1,1999-01-01T21:00:00Z,26.2168,-96.4998,2.0,48.07055799,23.63007617,-99999.0,'11111222,11111222,99999999' 
TABS,ioos:station:wmo:42045:1,1999-01-01T21:30:00Z,26.2168,-96.4998,2.0,22.0432548,20.25025679,-99999.0,'11111222,11111222,99999999' 
TABS,ioos:station:wmo:42045:1,1999-01-01T22:00:00Z,26.2168,-96.4998,2.0,53.79581178,25.47971939,-99999.0,'11111222,11111222,99999999' 
TABS,ioos:station:wmo:42045:1,1999-01-01T22:30:00Z,26.2168,-96.4998,2.0,53.12603129,27.56400007,-99999.0,'11111222,11111222,99999999' 
TABS,ioos:station:wmo:42045:1,1999-01-01T23:00:00Z,26.2168,-96.4998,2.0,42.03604111,24.47742838,-99999.0,'11111222,11111222,99999999' 
TABS,ioos:station:wmo:42045:1,1999-01-01T23:30:00Z,26.2168,-96.4998,2.0,53.87325638,30.07252899,-99999.0,'11111222,11111222,99999999' 
TABS,ioos:station:wmo:42045:1,1999-01-02T00:00:00Z,26.2168,-96.4998,2.0,67.53188074,30.79780025,-99999.0,'11111222,11111222,99999999' 
TABS,ioos:station:wmo:42045:1,1999-01-02T00:30:00Z,26.2168,-96.4998,2.0,55.37547984,25.16732207,-99999.0,'11111222,11111222,99999999' 
TABS,ioos:station:wmo:42045:1,1999-01-02T01:00:00Z,26.2168,-96.4998,2.0,62.35702216,24.72187088,-99999.0,'11111222,11111222,99999999' 
TABS,ioos:station:wmo:42045:1,1999-01-02T01:30:00Z,26.2168,-96.4998,2.0,59.91372334,24.97483734,-99999.0,'11111222,11111222,99999999' 
TABS,ioos:station:wmo:42045:1,1999-01-02T02:00:00Z,26.2168,-96.4998,2.0,57.24447149,25.33930149,-99999.0,'11111222,11111222,99999999' 
TABS,ioos:station:wmo:42045:1,1999-01-02T02:30:00Z,26.2168,-96.4998,2.0,55.22725368,26.12549712,-99999.0,'11111222,11111222,99999999' 
TABS,ioos:station:wmo:42045:1,1999-01-02T03:00:00Z,26.2168,-96.4998,2.0,55.17559228,22.69445968,-99999.0,'11111222,11111222,99999999' 
TABS,ioos:station:wmo:42045:1,1999-01-02T03:30:00Z,26.2168,-96.4998,2.0,60.29894765,24.36042898,-99999.0,'11111222,11111222,99999999' 
TABS,ioos:station:wmo:42045:1,1999-01-02T04:00:00Z,26.2168,-96.4998,2.0,63.74140185,24.25274005,-99999.0,'11111222,11111222,99999999' 
TABS,ioos:station:wmo:42045:1,1999-01-02T05:30:00Z,26.2168,-96.4998,2.0,65.72126549,23.54217492,-99999.0,'11111222,11111222,99999999' 
TABS,ioos:station:wmo:42045:1,1999-01-02T06:00:00Z,26.2168,-96.4998,2.0,68.60276185,20.0091704,-99999.0,'11111222,11111222,99999999' 
TABS,ioos:station:wmo:42045:1,1999-01-02T06:30:00Z,26.2168,-96.4998,2.0,69.40374642,24.98712068,-99999.0,'11111222,11111222,99999999' 
TABS,ioos:station:wmo:42045:1,1999-01-02T07:00:00Z,26.2168,-96.4998,2.0,61.74949553,27.06366014,-99999.0,'11111222,11111222,99999999' 
TABS,ioos:station:wmo:42045:1,1999-01-02T07:30:00Z,26.2168,-96.4998,2.0,55.85649319,26.27974505,-99999.0,'11111222,11111222,99999999' 
TABS,ioos:station:wmo:42045:1,1999-01-02T08:00:00Z,26.2168,-96.4998,2.0,56.6247021,29.79339692,-99999.0,'11111222,11111222,99999999' 
TABS,ioos:station:wmo:42045:1,1999-01-02T08:30:00Z,26.2168,-96.4998,2.0,53.97419532,28.37707878,-99999.0,'11111222,11111222,99999999' 
TABS,ioos:station:wmo:42045:1,1999-01-02T09:00:00Z,26.2168,-96.4998,2.0,67.2354045,26.17931435,-99999.0,'11111222,11111222,99999999' 
TABS,ioos:station:wmo:42045:1,1999-01-02T09:30:00Z,26.2168,-96.4998,2.0,63.17922851,30.05305309,-99999.0,'11111222,11111222,99999999' 
TABS,ioos:station:wmo:42045:1,1999-01-02T10:00:00Z,26.2168,-96.4998,2.0,64.68516678,24.39236356,-99999.0,'11111222,11111222,99999999' 
TABS,ioos:station:wmo:42045:1,1999-01-02T10:30:00Z,26.2168,-96.4998,2.0,72.94861406,21.34843554,-99999.0,'11111222,11111222,99999999' 
TABS,ioos:station:wmo:42045:1,1999-01-02T11:00:00Z,26.2168,-96.4998,2.0,21.237781,23.02362265,-99999.0,'11111222,11111222,99999999' 
TABS,ioos:station:wmo:42045:1,1999-01-02T11:30:00Z,26.2168,-96.4998,2.0,40.26996971,14.06275222,-99999.0,'11111222,11111222,99999999' 
TABS,ioos:station:wmo:42045:1,1999-01-02T12:00:00Z,26.2168,-96.4998,2.0,9.342913421,11.0262641,-99999.0,'11111222,11111222,99999999' 
TABS,ioos:station:wmo:42045:1,1999-01-02T12:30:00Z,26.2168,-96.4998,2.0,331.097921,9.86927049,-99999.0,'11133222,11111222,99999999' 
TABS,ioos:station:wmo:42045:1,1999-01-02T13:00:00Z,26.2168,-96.4998,2.0,325.4018045,10.49624695,-99999.0,'11111222,11111222,99999999' 
TABS,ioos:station:wmo:42045:1,1999-01-02T13:30:00Z,26.2168,-96.4998,2.0,17.18587642,2.030664916,-99999.0,'11133222,11111222,99999999' 
TABS,ioos:station:wmo:42045:1,1999-01-02T14:00:00Z,26.2168,-96.4998,2.0,296.8223394,0.997296345,-99999.0,'11133222,11111222,99999999' 
TABS,ioos:station:wmo:42045:1,1999-01-02T17:30:00Z,26.2168,-96.4998,2.0,227.9179218,16.66690733,-99999.0,'11111222,11111222,99999999' 
TABS,ioos:station:wmo:42045:1,1999-01-02T18:00:00Z,26.2168,-96.4998,2.0,193.9146508,14.88687005,-99999.0,'11111222,11111222,99999999' 
TABS,ioos:station:wmo:42045:1,1999-01-02T18:30:00Z,26.2168,-96.4998,2.0,257.4679738,21.98373262,-99999.0,'11111222,11111222,99999999' 
TABS,ioos:station:wmo:42045:1,1999-01-02T19:00:00Z,26.2168,-96.4998,2.0,220.4501157,23.89063415,-99999.0,'11111222,11111222,99999999' 
TABS,ioos:station:wmo:42045:1,1999-01-02T19:30:00Z,26.2168,-96.4998,2.0,192.5689383,18.47271772,-99999.0,'11111222,11111222,99999999' 
TABS,ioos:station:wmo:42045:1,1999-01-02T20:00:00Z,26.2168,-96.4998,2.0,171.6322947,20.47798818,-99999.0,'11111222,11111222,99999999' 
TABS,ioos:station:wmo:42045:1,1999-01-02T20:30:00Z,26.2168,-96.4998,2.0,219.8101172,30.25383447,-99999.0,'11111222,11111222,99999999' 
TABS,ioos:station:wmo:42045:1,1999-01-02T21:00:00Z,26.2168,-96.4998,2.0,190.6321177,19.40312604,-99999.0,'11111222,11111222,99999999' 
TABS,ioos:station:wmo:42045:1,1999-01-02T21:30:00Z,26.2168,-96.4998,2.0,189.6153408,27.65858456,-99999.0,'11111222,11111222,99999999' 
TABS,ioos:station:wmo:42045:1,1999-01-02T22:00:00Z,26.2168,-96.4998,2.0,181.101964,23.39432837,-99999.0,'11111222,11111222,99999999' 
TABS,ioos:station:wmo:42045:1,1999-01-02T22:30:00Z,26.2168,-96.4998,2.0,189.9991443,23.15168244,-99999.0,'11111222,11111222,99999999' 
TABS,ioos:station:wmo:42045:1,1999-01-02T23:00:00Z,26.2168,-96.4998,2.0,188.7017487,23.66238576,-99999.0,'11111222,11111222,99999999' 
TABS,ioos:station:wmo:42045:1,1999-01-03T09:30:00Z,26.2168,-96.4998,2.0,337.6651694,11.76245298,-99999.0,'11111222,11111222,99999999' 
TABS,ioos:station:wmo:42045:1,1999-01-03T10:00:00Z,26.2168,-96.4998,2.0,318.34063,14.56285686,-99999.0,'11111222,11111222,99999999' 
TABS,ioos:station:wmo:42045:1,1999-01-03T10:30:00Z,26.2168,-96.4998,2.0,338.7243568,15.18494649,-99999.0,'11111222,11111222,99999999' 
TABS,ioos:station:wmo:42045:1,1999-01-03T11:00:00Z,26.2168,-96.4998,2.0,354.2896307,14.97431468,-99999.0,'11111222,11111222,99999999' 
TABS,ioos:station:wmo:42045:1,1999-01-03T11:30:00Z,26.2168,-96.4998,2.0,349.5942691,13.1767219,-99999.0,'11111222,11111222,99999999' 
TABS,ioos:station:wmo:42045:1,1999-01-03T12:00:00Z,26.2168,-96.4998,2.0,4.555772064,11.20540048,-99999.0,'11111222,11111222,99999999' 
TABS,ioos:station:wmo:42045:1,1999-01-03T12:30:00Z,26.2168,-96.4998,2.0,9.058077406,13.27554895,-99999.0,'11111222,11111222,99999999' 
TABS,ioos:station:wmo:42045:1,1999-01-03T13:00:00Z,26.2168,-96.4998,2.0,1.966108381,13.11772084,-99999.0,'11111222,11111222,99999999' 
TABS,ioos:station:wmo:42045:1,1999-01-03T13:30:00Z,26.2168,-96.4998,2.0,338.8103809,15.65872281,-99999.0,'11111222,11111222,99999999' 
TABS,ioos:station:wmo:42045:1,1999-01-03T14:00:00Z,26.2168,-96.4998,2.0,345.4624946,12.46923414,-99999.0,'11111222,11111222,99999999' 
TABS,ioos:station:wmo:42045:1,1999-01-03T14:30:00Z,26.2168,-96.4998,2.0,356.3653286,14.03824063,-99999.0,'11111222,11111222,99999999' 
TABS,ioos:station:wmo:42045:1,1999-01-03T15:00:00Z,26.2168,-96.4998,2.0,345.9639998,12.90532061,-99999.0,'11111222,11111222,99999999' 
TABS,ioos:station:wmo:42045:1,1999-01-03T15:30:00Z,26.2168,-96.4998,2.0,358.078259,8.945032141,-99999.0,'11133222,11111222,99999999' 
TABS,ioos:station:wmo:42045:1,1999-01-03T16:00:00Z,26.2168,-96.4998,2.0,318.8046556,11.08357343,-99999.0,'11111222,11111222,99999999' 
TABS,ioos:station:wmo:42045:1,1999-01-03T16:30:00Z,26.2168,-96.4998,2.0,342.8767346,12.15898022,-99999.0,'11111222,11111222,99999999' 
TABS,ioos:station:wmo:42045:1,1999-01-03T17:00:00Z,26.2168,-96.4998,2.0,51.81201707,6.25965654,-99999.0,'11133222,11111222,99999999' 
TABS,ioos:station:wmo:42045:1,1999-01-03T17:30:00Z,26.2168,-96.4998,2.0,118.2305278,20.46419556,-99999.0,'11111222,11111222,99999999' 
TABS,ioos:station:wmo:42045:1,1999-01-03T18:00:00Z,26.2168,-96.4998,2.0,39.25145525,6.353487231,-99999.0,'11133222,11111222,99999999' 
TABS,ioos:station:wmo:42045:1,1999-01-03T18:30:00Z,26.2168,-96.4998,2.0,314.3665401,19.17790917,-99999.0,'11111222,11111222,99999999' 
TABS,ioos:station:wmo:42045:1,1999-01-03T19:00:00Z,26.2168,-96.4998,2.0,299.1271548,20.8117587,-99999.0,'11111222,11111222,99999999' 
TABS,ioos:station:wmo:42045:1,1999-01-03T19:30:00Z,26.2168,-96.4998,2.0,318.1465929,13.39865665,-99999.0,'11111222,11111222,99999999' 
TABS,ioos:station:wmo:42045:1,1999-01-03T20:00:00Z,26.2168,-96.4998,2.0,147.8475696,26.04423353,-99999.0,'11111222,11111222,99999999' 
TABS,ioos:station:wmo:42045:1,1999-01-03T20:30:00Z,26.2168,-96.4998,2.0,306.1012801,10.87897973,-99999.0,'11111222,11111222,99999999' 
TABS,ioos:station:wmo:42045:1,1999-01-03T21:00:00Z,26.2168,-96.4998,2.0,326.0122461,17.06558232,-99999.0,'11111222,11111222,99999999' 
TABS,ioos:station:wmo:42045:1,1999-01-03T21:30:00Z,26.2168,-96.4998,2.0,334.0006206,13.59595528,-99999.0,'11111222,11111222,99999999' 
TABS,ioos:station:wmo:42045:1,1999-01-03T22:00:00Z,26.2168,-96.4998,2.0,325.250359,11.24569695,-99999.0,'11111222,11111222,99999999' 
TABS,ioos:station:wmo:42045:1,1999-01-03T22:30:00Z,26.2168,-96.4998,2.0,318.4699353,8.76297324,-99999.0,'11133222,11111222,99999999' 
TABS,ioos:station:wmo:42045:1,1999-01-03T23:00:00Z,26.2168,-96.4998,2.0,337.7438762,9.821736099,-99999.0,'11133222,11111222,99999999' 
TABS,ioos:station:wmo:42045:1,1999-01-03T23:30:00Z,26.2168,-96.4998,2.0,310.4123483,9.193562965,-99999.0,'11133222,11111222,99999999' 
TABS,ioos:station:wmo:42045:1,1999-01-04T00:00:00Z,26.2168,-96.4998,2.0,339.7217279,11.59891374,-99999.0,'11111222,11111222,99999999' 
TABS,ioos:station:wmo:42045:1,1999-01-04T00:30:00Z,26.2168,-96.4998,2.0,343.5731778,9.476840191,-99999.0,'11133222,11111222,99999999' 
TABS,ioos:station:wmo:42045:1,1999-01-04T01:00:00Z,26.2168,-96.4998,2.0,324.2588535,10.46002868,-99999.0,'11111222,11111222,99999999' 
TABS,ioos:station:wmo:42045:1,1999-01-04T01:30:00Z,26.2168,-96.4998,2.0,349.3854184,7.274482799,-99999.0,'11133222,11111222,99999999' 
TABS,ioos:station:wmo:42045:1,1999-01-04T02:00:00Z,26.2168,-96.4998,2.0,337.7985547,12.22647946,-99999.0,'11111222,11111222,99999999' 
TABS,ioos:station:wmo:42045:1,1999-01-04T02:30:00Z,26.2168,-96.4998,2.0,339.290667,11.79193792,-99999.0,'11111222,11111222,99999999' 
TABS,ioos:station:wmo:42045:1,1999-01-04T03:00:00Z,26.2168,-96.4998,2.0,313.3527648,14.75634779,-99999.0,'11111222,11111222,99999999' 
TABS,ioos:station:wmo:42045:1,1999-01-04T03:30:00Z,26.2168,-96.4998,2.0,317.464185,12.33627578,-99999.0,'11111222,11111222,99999999' 
TABS,ioos:station:wmo:42045:1,1999-01-04T04:00:00Z,26.2168,-96.4998,2.0,317.7975527,10.86703731,-99999.0,'11111222,11111222,99999999' 
TABS,ioos:station:wmo:42045:1,1999-01-04T04:30:00Z,26.2168,-96.4998,2.0,333.8841497,9.132381946,-99999.0,'11133222,11111222,99999999' 
TABS,ioos:station:wmo:42045:1,1999-01-04T05:00:00Z,26.2168,-96.4998,2.0,331.9563164,12.99588396,-99999.0,'11111222,11111222,99999999' 
TABS,ioos:station:wmo:42045:1,1999-01-04T05:30:00Z,26.2168,-96.4998,2.0,322.2229229,13.38567891,-99999.0,'11111222,11111222,99999999' 
TABS,ioos:station:wmo:42045:1,1999-01-04T06:00:00Z,26.2168,-96.4998,2.0,322.6433615,11.05839952,-99999.0,'11111222,11111222,99999999' 
TABS,ioos:station:wmo:42045:1,1999-01-04T06:30:00Z,26.2168,-96.4998,2.0,335.7296461,13.40479392,-99999.0,'11111222,11111222,99999999' 
TABS,ioos:station:wmo:42045:1,1999-01-04T07:00:00Z,26.2168,-96.4998,2.0,338.9131044,13.25782033,-99999.0,'11111222,11111222,99999999' 
TABS,ioos:station:wmo:42045:1,1999-01-04T07:30:00Z,26.2168,-96.4998,2.0,334.7462583,11.5321854,-99999.0,'11111222,11111222,99999999' 
TABS,ioos:station:wmo:42045:1,1999-01-04T08:00:00Z,26.2168,-96.4998,2.0,329.245609,14.56890181,-99999.0,'11111222,11111222,99999999' 
TABS,ioos:station:wmo:42045:1,1999-01-04T08:30:00Z,26.2168,-96.4998,2.0,344.2696558,10.99166957,-99999.0,'11111222,11111222,99999999' 
TABS,ioos:station:wmo:42045:1,1999-01-04T09:00:00Z,26.2168,-96.4998,2.0,334.492867,7.268459259,-99999.0,'11133222,11111222,99999999' 
TABS,ioos:station:wmo:42045:1,1999-01-04T09:30:00Z,26.2168,-96.4998,2.0,330.2638519,8.407074402,-99999.0,'11133222,11111222,99999999' 
TABS,ioos:station:wmo:42045:1,1999-01-04T10:00:00Z,26.2168,-96.4998,2.0,345.7750396,10.29569327,-99999.0,'11111222,11111222,99999999' 
TABS,ioos:station:wmo:42045:1,1999-01-04T10:30:00Z,26.2168,-96.4998,2.0,333.4804429,5.66619802,-99999.0,'11133222,11111222,99999999' 
TABS,ioos:station:wmo:42045:1,1999-01-04T11:00:00Z,26.2168,-96.4998,2.0,328.4093057,4.543269748,-99999.0,'11133222,11111222,99999999' 
TABS,ioos:station:wmo:42045:1,1999-01-04T11:30:00Z,26.2168,-96.4998,2.0,336.6562541,8.277584189,-99999.0,'11133222,11111222,99999999' 
TABS,ioos:station:wmo:42045:1,1999-01-04T12:00:00Z,26.2168,-96.4998,2.0,350.4860122,3.629931129,-99999.0,'11133222,11111222,99999999' 
TABS,ioos:station:wmo:42045:1,1999-01-04T12:30:00Z,26.2168,-96.4998,2.0,10.36650882,3.334426487,-99999.0,'11133222,11111222,99999999' 
TABS,ioos:station:wmo:42045:1,1999-01-04T13:00:00Z,26.2168,-96.4998,2.0,306.2708409,5.544303383,-99999.0,'11133222,11111222,99999999' 
TABS,ioos:station:wmo:42045:1,1999-01-04T13:30:00Z,26.2168,-96.4998,2.0,270.0004209,5.51,-99999.0,'11133222,11111222,99999999' 
TABS,ioos:station:wmo:42045:1,1999-01-04T14:00:00Z,26.2168,-96.4998,2.0,300.964105,9.562761108,-99999.0,'11133222,11111222,99999999' 
TABS,ioos:station:wmo:42045:1,1999-01-04T14:30:00Z,26.2168,-96.4998,2.0,302.3810229,1.941957775,-99999.0,'11133222,11111222,99999999' 
TABS,ioos:station:wmo:42045:1,1999-01-04T15:00:00Z,26.2168,-96.4998,2.0,277.4746547,3.45939301,-99999.0,'11133222,11111222,99999999' 
TABS,ioos:station:wmo:42045:1,1999-01-04T15:30:00Z,26.2168,-96.4998,2.0,298.3128707,6.599469676,-99999.0,'11133222,11111222,99999999' 
TABS,ioos:station:wmo:42045:1,1999-01-04T16:00:00Z,26.2168,-96.4998,2.0,287.2721231,2.492388413,-99999.0,'11133222,11111222,99999999' 
TABS,ioos:station:wmo:42045:1,1999-01-04T20:30:00Z,26.2168,-96.4998,2.0,285.1322498,5.707906797,-99999.0,'11133222,11111222,99999999' 
TABS,ioos:station:wmo:42045:1,1999-01-04T21:00:00Z,26.2168,-96.4998,2.0,247.2214436,5.010788361,-99999.0,'11133222,11111222,99999999' 
TABS,ioos:station:wmo:42045:1,1999-01-04T21:30:00Z,26.2168,-96.4998,2.0,246.6556227,8.277584189,-99999.0,'11133222,11111222,99999999' 
TABS,ioos:station:wmo:42045:1,1999-01-04T22:00:00Z,26.2168,-96.4998,2.0,289.5296905,7.119585662,-99999.0,'11133222,11111222,99999999' 
TABS,ioos:station:wmo:42045:1,1999-01-04T22:30:00Z,26.2168,-96.4998,2.0,280.4019097,7.421967394,-99999.0,'11133222,11111222,99999999' 
TABS,ioos:station:wmo:42045:1,1999-01-04T23:00:00Z,26.2168,-96.4998,2.0,271.695064,5.07221845,-99999.0,'11133222,11111222,99999999' 
TABS,ioos:station:wmo:42045:1,1999-01-04T23:30:00Z,26.2168,-96.4998,2.0,261.9156895,5.262290376,-99999.0,'11133222,11111222,99999999' 
TABS,ioos:station:wmo:42045:1,1999-01-05T00:00:00Z,26.2168,-96.4998,2.0,271.6495521,5.212158862,-99999.0,'11133222,11111222,99999999' 
TABS,ioos:station:wmo:42045:1,1999-01-05T00:30:00Z,26.2168,-96.4998,2.0,242.0582403,5.399425895,-99999.0,'11133222,11111222,99999999' 
TABS,ioos:station:wmo:42045:1,1999-01-05T01:00:00Z,26.2168,-96.4998,2.0,282.951749,3.97102002,-99999.0,'11133222,11111222,99999999' 
TABS,ioos:station:wmo:42045:1,1999-01-05T01:30:00Z,26.2168,-96.4998,2.0,214.7615106,6.524415683,-99999.0,'11133222,11111222,99999999' 
TABS,ioos:station:wmo:42045:1,1999-01-05T02:00:00Z,26.2168,-96.4998,2.0,36.33185607,2.768122107,-99999.0,'11133222,11111222,99999999' 
TABS,ioos:station:wmo:42045:1,1999-01-05T02:30:00Z,26.2168,-96.4998,2.0,161.6129103,3.772598574,-99999.0,'11133222,11111222,99999999' 
TABS,ioos:station:wmo:42045:1,1999-01-05T03:00:00Z,26.2168,-96.4998,2.0,148.2088853,3.682458418,-99999.0,'11133222,11111222,99999999' 
TABS,ioos:station:wmo:42045:1,1999-01-05T03:30:00Z,26.2168,-96.4998,2.0,214.4308286,3.431107693,-99999.0,'11133222,11111222,99999999' 
TABS,ioos:station:wmo:42045:1,1999-01-05T04:00:00Z,26.2168,-96.4998,2.0,15.43603625,2.780287755,-99999.0,'11133222,11111222,99999999' 
TABS,ioos:station:wmo:42045:1,1999-01-05T05:30:00Z,26.2168,-96.4998,2.0,147.6861505,3.348581789,-99999.0,'11133222,11111222,99999999' 
TABS,ioos:station:wmo:42045:1,1999-01-05T06:00:00Z,26.2168,-96.4998,2.0,261.2090565,1.963058838,-99999.0,'11133222,11111222,99999999' 
TABS,ioos:station:wmo:42045:1,1999-01-05T06:30:00Z,26.2168,-96.4998,2.0,70.90146784,4.095424276,-99999.0,'11133222,11111222,99999999' 
TABS,ioos:station:wmo:42045:1,1999-01-05T07:00:00Z,26.2168,-96.4998,2.0,45.00010523,0.848528137,-99999.0,'11133222,11111222,99999999' 
TABS,ioos:station:wmo:42045:1,1999-01-05T07:30:00Z,26.2168,-96.4998,2.0,35.77024057,4.584844599,-99999.0,'11133222,11111222,99999999' 
TABS,ioos:station:wmo:42045:1,1999-01-05T08:00:00Z,26.2168,-96.4998,2.0,45.94549212,6.428475714,-99999.0,'11133222,11111222,99999999' 
TABS,ioos:station:wmo:42045:1,1999-01-05T08:30:00Z,26.2168,-96.4998,2.0,28.31266024,6.599469676,-99999.0,'11133222,11111222,99999999' 
TABS,ioos:station:wmo:42045:1,1999-01-05T09:00:00Z,26.2168,-96.4998,2.0,353.0946005,6.15464865,-99999.0,'11133222,11111222,99999999' 
TABS,ioos:station:wmo:42045:1,1999-01-05T09:30:00Z,26.2168,-96.4998,2.0,33.99792714,8.262378592,-99999.0,'11133222,11111222,99999999' 
TABS,ioos:station:wmo:42045:1,1999-01-05T10:00:00Z,26.2168,-96.4998,2.0,22.62571225,7.746153884,-99999.0,'11133222,11111222,99999999' 
TABS,ioos:station:wmo:42045:1,1999-01-05T10:30:00Z,26.2168,-96.4998,2.0,35.81706202,11.20989295,-99999.0,'11111222,11111222,99999999' 
TABS,ioos:station:wmo:42045:1,1999-01-05T11:00:00Z,26.2168,-96.4998,2.0,14.00815488,9.832395435,-99999.0,'11133222,11111222,99999999' 
TABS,ioos:station:wmo:42045:1,1999-01-05T11:30:00Z,26.2168,-96.4998,2.0,22.50692055,9.352325914,-99999.0,'11133222,11111222,99999999' 
TABS,ioos:station:wmo:42045:1,1999-01-05T12:00:00Z,26.2168,-96.4998,2.0,24.63291027,11.80420688,-99999.0,'11111222,11111222,99999999' 
TABS,ioos:station:wmo:42045:1,1999-01-05T12:30:00Z,26.2168,-96.4998,2.0,35.45501601,12.06767998,-99999.0,'11111222,11111222,99999999' 
TABS,ioos:station:wmo:42045:1,1999-01-05T13:00:00Z,26.2168,-96.4998,2.0,31.2288733,11.4956731,-99999.0,'11111222,11111222,99999999' 